SVA003 OBBI-OKKK

Flight info

Callsign SVA003
Flight time 0h 50m
Altitude 26000
Route BHR075/12L BHR A453 KUMBO/N0457F240 A453 DEBTI
Aircraft MD11/H-SDE1E2E3FGHIJ2J3J4J5M1RWXY/LB1D1

Departure

Time 2026-04-27 15:39
Airport Bahrain International Airport (OBBI)

Arrival

Time 2026-04-27 16:29
Airport Kuwait International Airport (OKKK)
Time Latitude Longitude Altitude Speed Heading
2026-04-27 15:13 26.27420 50.62070 24 ft 0 kts 212°
2026-04-27 15:24 26.27424 50.62073 26 ft 3 kts 212°
2026-04-27 15:25 26.27447 50.62089 24 ft 4 kts 213°
2026-04-27 15:25 26.27465 50.62102 24 ft 4 kts 200°
2026-04-27 15:25 26.27484 50.62106 24 ft 4 kts 154°
2026-04-27 15:25 26.27502 50.62090 26 ft 4 kts 124°
2026-04-27 15:26 26.27516 50.62066 24 ft 4 kts 122°
2026-04-27 15:26 26.27520 50.62058 24 ft 0 kts 122°
2026-04-27 15:29 26.27509 50.62078 24 ft 6 kts 122°
2026-04-27 15:30 26.27485 50.62125 25 ft 5 kts 111°
2026-04-27 15:30 26.27484 50.62126 24 ft 0 kts 109°
2026-04-27 15:30 26.27484 50.62127 24 ft 1 kts 109°
2026-04-27 15:31 26.27492 50.62167 27 ft 8 kts 61°
2026-04-27 15:31 26.27525 50.62194 24 ft 4 kts 16°
2026-04-27 15:31 26.27569 50.62175 24 ft 11 kts 318°
2026-04-27 15:31 26.27632 50.62076 26 ft 17 kts 302°
2026-04-27 15:32 26.27693 50.61970 29 ft 15 kts 302°
2026-04-27 15:32 26.27761 50.61855 27 ft 16 kts 303°
2026-04-27 15:32 26.27809 50.61773 27 ft 10 kts 303°
2026-04-27 15:32 26.27834 50.61730 24 ft 10 kts 303°
2026-04-27 15:33 26.27895 50.61657 27 ft 7 kts 332°
2026-04-27 15:33 26.27915 50.61652 26 ft 0 kts 352°
2026-04-27 15:37 26.27928 50.61651 25 ft 8 kts 356°
2026-04-27 15:38 26.27999 50.61673 28 ft 10 kts 26°
2026-04-27 15:38 26.28021 50.61698 30 ft 4 kts 61°
2026-04-27 15:38 26.28018 50.61742 29 ft 8 kts 112°
2026-04-27 15:38 26.27966 50.61831 27 ft 29 kts 122°
2026-04-27 15:39 26.27688 50.62316 24 ft 120 kts 122°
2026-04-27 15:39 26.27101 50.63363 63 ft 188 kts 121°
2026-04-27 15:39 26.26413 50.64632 899 ft 190 kts 119°
2026-04-27 15:39 26.25767 50.65903 2064 ft 182 kts 113°
2026-04-27 15:40 26.25537 50.67297 2917 ft 188 kts 84°
2026-04-27 15:40 26.25764 50.68780 3324 ft 208 kts 77°
2026-04-27 15:40 26.26072 50.70533 3467 ft 251 kts 77°
2026-04-27 15:40 26.26511 50.72475 3808 ft 267 kts 64°
2026-04-27 15:41 26.27648 50.74095 4607 ft 268 kts 35°
2026-04-27 15:41 26.29343 50.74933 5625 ft 270 kts
2026-04-27 15:41 26.31219 50.74809 6572 ft 274 kts 339°
2026-04-27 15:41 26.32865 50.73768 7579 ft 275 kts 319°
2026-04-27 15:42 26.34291 50.72328 8537 ft 279 kts 315°
2026-04-27 15:42 26.35702 50.70830 9499 ft 282 kts 315°
2026-04-27 15:42 26.37151 50.69291 9999 ft 287 kts 315°
2026-04-27 15:42 26.38639 50.67711 10396 ft 306 kts 315°
2026-04-27 15:43 26.40233 50.66007 10793 ft 330 kts 315°
2026-04-27 15:43 26.41970 50.64182 10978 ft 357 kts 317°
2026-04-27 15:43 26.43917 50.62420 11011 ft 363 kts 322°
2026-04-27 15:43 26.46000 50.60883 11009 ft 364 kts 327°
2026-04-27 15:44 26.48224 50.59498 11535 ft 364 kts 331°
2026-04-27 15:44 26.50499 50.58230 12442 ft 369 kts 332°
2026-04-27 15:44 26.52841 50.56999 13282 ft 374 kts 333°
2026-04-27 15:44 26.55231 50.55783 14072 ft 379 kts 333°
2026-04-27 15:45 26.57653 50.54583 14830 ft 384 kts 334°
2026-04-27 15:45 26.60110 50.53382 15572 ft 387 kts 334°
2026-04-27 15:45 26.62600 50.52166 16233 ft 393 kts 334°
2026-04-27 15:45 26.65112 50.50937 16933 ft 396 kts 333°
2026-04-27 15:46 26.67645 50.49688 17543 ft 399 kts 333°
2026-04-27 15:46 26.70154 50.48336 18094 ft 401 kts 326°
2026-04-27 15:46 26.72408 50.46508 18688 ft 402 kts 317°
2026-04-27 15:46 26.74493 50.44406 19292 ft 404 kts 314°
2026-04-27 15:47 26.76511 50.42208 19896 ft 406 kts 312°
2026-04-27 15:47 26.78513 50.39996 20428 ft 409 kts 312°
2026-04-27 15:47 26.80550 50.37759 21027 ft 412 kts 313°
2026-04-27 15:47 26.82614 50.35512 21597 ft 414 kts 312°
2026-04-27 15:48 26.84711 50.33259 22182 ft 418 kts 312°
2026-04-27 15:48 26.86822 50.31001 22778 ft 421 kts 312°
2026-04-27 15:48 26.88948 50.28730 23335 ft 424 kts 312°
2026-04-27 15:49 26.93251 50.24146 24449 ft 429 kts 311°
2026-04-27 15:49 26.95416 50.21831 24815 ft 431 kts 311°
2026-04-27 15:49 26.97562 50.19532 25186 ft 433 kts 311°
2026-04-27 15:49 26.99736 50.17199 25560 ft 434 kts 311°
2026-04-27 15:50 27.01929 50.14853 25740 ft 435 kts 311°
2026-04-27 15:50 27.04128 50.12501 25777 ft 438 kts 311°
2026-04-27 15:50 27.06305 50.10105 25783 ft 436 kts 308°
2026-04-27 15:50 27.08347 50.07594 25775 ft 434 kts 306°
2026-04-27 15:51 27.10317 50.05022 25769 ft 433 kts 305°
2026-04-27 15:51 27.12254 50.02427 25767 ft 433 kts 305°
2026-04-27 15:51 27.14186 49.99817 25768 ft 433 kts 304°
2026-04-27 15:51 27.16106 49.97216 25767 ft 432 kts 304°
2026-04-27 15:52 27.18033 49.94627 25767 ft 433 kts 304°
2026-04-27 15:52 27.19971 49.92040 25771 ft 433 kts 305°
2026-04-27 15:52 27.21892 49.89486 25776 ft 432 kts 305°
2026-04-27 15:52 27.23833 49.86909 25776 ft 432 kts 305°
2026-04-27 15:53 27.25771 49.84329 25776 ft 432 kts 305°
2026-04-27 15:53 27.27704 49.81751 25778 ft 432 kts 305°
2026-04-27 15:53 27.29642 49.79165 25776 ft 432 kts 304°
2026-04-27 15:53 27.31576 49.76583 25779 ft 432 kts 304°
2026-04-27 15:54 27.33513 49.73993 25784 ft 432 kts 304°
2026-04-27 15:54 27.35448 49.71409 25785 ft 431 kts 304°
2026-04-27 15:54 27.37387 49.68822 25787 ft 431 kts 304°
2026-04-27 15:54 27.39294 49.66270 25786 ft 431 kts 304°
2026-04-27 15:55 27.41222 49.63684 25785 ft 430 kts 304°
2026-04-27 15:55 27.42522 49.61943 25786 ft 431 kts 304°
2026-04-27 15:55 27.45077 49.58520 25786 ft 431 kts 304°
2026-04-27 15:55 27.47070 49.55986 25785 ft 434 kts 309°
2026-04-27 15:56 27.49307 49.53654 25786 ft 437 kts 313°
2026-04-27 15:56 27.51658 49.51468 25786 ft 440 kts 315°
2026-04-27 15:56 27.54066 49.49329 25785 ft 441 kts 316°
2026-04-27 15:56 27.56480 49.47201 25787 ft 440 kts 315°
2026-04-27 15:57 27.58889 49.45073 25785 ft 439 kts 315°
2026-04-27 15:57 27.61250 49.42962 25792 ft 439 kts 315°
2026-04-27 15:57 27.63635 49.40812 25792 ft 439 kts 315°
2026-04-27 15:57 27.66020 49.38652 25795 ft 439 kts 315°
2026-04-27 15:58 27.68396 49.36498 25794 ft 438 kts 315°
2026-04-27 15:58 27.70773 49.34340 25797 ft 439 kts 315°
2026-04-27 15:58 27.73154 49.32181 25794 ft 439 kts 315°
2026-04-27 15:58 27.75544 49.30013 25788 ft 439 kts 315°
2026-04-27 15:59 27.77926 49.27847 25787 ft 439 kts 315°
2026-04-27 15:59 27.80295 49.25686 25785 ft 438 kts 315°
2026-04-27 15:59 27.82669 49.23517 25785 ft 438 kts 315°
2026-04-27 15:59 27.85047 49.21361 25782 ft 439 kts 316°
2026-04-27 16:00 27.87522 49.19398 25775 ft 443 kts 321°
2026-04-27 16:00 27.89302 49.18146 25769 ft 445 kts 322°
2026-04-27 16:00 27.92847 49.15808 25767 ft 445 kts 323°
2026-04-27 16:00 27.95543 49.14072 25766 ft 445 kts 323°
2026-04-27 16:01 27.98233 49.12335 25767 ft 445 kts 323°
2026-04-27 16:01 28.00922 49.10587 25767 ft 445 kts 323°
2026-04-27 16:01 28.03604 49.08832 25767 ft 445 kts 323°
2026-04-27 16:01 28.06279 49.07074 25767 ft 445 kts 323°
2026-04-27 16:02 28.08951 49.05308 25767 ft 444 kts 323°
2026-04-27 16:02 28.11626 49.03539 25766 ft 444 kts 323°
2026-04-27 16:02 28.14263 49.01797 25767 ft 444 kts 323°
2026-04-27 16:02 28.16937 49.00031 25767 ft 443 kts 323°
2026-04-27 16:03 28.19600 48.98272 25565 ft 437 kts 323°
2026-04-27 16:03 28.22188 48.96561 25236 ft 419 kts 323°
2026-04-27 16:03 28.24647 48.94942 25099 ft 398 kts 323°
2026-04-27 16:03 28.26985 48.93394 24751 ft 383 kts 323°
2026-04-27 16:04 28.29269 48.91872 24088 ft 380 kts 323°
2026-04-27 16:04 28.31535 48.90357 23413 ft 376 kts 323°
2026-04-27 16:04 28.33770 48.88864 22925 ft 370 kts 323°
2026-04-27 16:04 28.35998 48.87372 22548 ft 372 kts 323°
2026-04-27 16:05 28.38201 48.85894 22177 ft 371 kts 324°
2026-04-27 16:05 28.40424 48.84405 21812 ft 369 kts 323°
2026-04-27 16:05 28.42630 48.82908 21745 ft 368 kts 324°
2026-04-27 16:05 28.44852 48.81427 21754 ft 368 kts 324°
2026-04-27 16:06 28.46994 48.80015 21713 ft 351 kts 324°
2026-04-27 16:06 28.49078 48.78651 21368 ft 342 kts 324°
2026-04-27 16:06 28.51125 48.77299 20821 ft 339 kts 324°
2026-04-27 16:06 28.53152 48.75949 20284 ft 337 kts 324°
2026-04-27 16:07 28.55166 48.74601 19744 ft 335 kts 324°
2026-04-27 16:07 28.57117 48.73186 19289 ft 325 kts 317°
2026-04-27 16:07 28.58671 48.71486 19172 ft 305 kts 306°
2026-04-27 16:07 28.59961 48.69654 19036 ft 290 kts 302°
2026-04-27 16:08 28.61149 48.67836 18733 ft 282 kts 302°
2026-04-27 16:08 28.62310 48.66040 18304 ft 280 kts 302°
2026-04-27 16:08 28.63467 48.64253 17815 ft 278 kts 302°
2026-04-27 16:08 28.64599 48.62517 17449 ft 261 kts 302°
2026-04-27 16:09 28.65657 48.60903 17036 ft 249 kts 302°
2026-04-27 16:09 28.67713 48.57753 16300 ft 248 kts 302°
2026-04-27 16:09 28.68743 48.56184 15925 ft 246 kts 303°
2026-04-27 16:10 28.70769 48.53091 15751 ft 244 kts 303°
2026-04-27 16:10 28.72834 48.50022 15743 ft 245 kts 309°
2026-04-27 16:11 28.74149 48.48790 15751 ft 250 kts 323°
2026-04-27 16:11 28.77195 48.46800 15751 ft 252 kts 327°
2026-04-27 16:12 28.80252 48.44897 15070 ft 249 kts 327°
2026-04-27 16:12 28.81765 48.43952 14480 ft 246 kts 327°
2026-04-27 16:12 28.84579 48.42211 13925 ft 221 kts 327°
2026-04-27 16:13 28.85920 48.41368 13433 ft 219 kts 327°
2026-04-27 16:13 28.88585 48.39702 12691 ft 217 kts 327°
2026-04-27 16:13 28.89903 48.38879 12310 ft 215 kts 327°
2026-04-27 16:14 28.92511 48.37258 12030 ft 213 kts 327°
2026-04-27 16:14 28.95115 48.35626 12021 ft 214 kts 327°
2026-04-27 16:15 28.97677 48.33981 12014 ft 212 kts 325°
2026-04-27 16:15 29.00264 48.32303 12015 ft 214 kts 326°
2026-04-27 16:16 29.02857 48.30677 11461 ft 213 kts 328°
2026-04-27 16:16 29.05439 48.29097 10481 ft 209 kts 328°
2026-04-27 16:17 29.07986 48.27527 9496 ft 206 kts 329°
2026-04-27 16:17 29.10504 48.25964 8518 ft 205 kts 329°
2026-04-27 16:18 29.13170 48.24300 7047 ft 223 kts 330°
2026-04-27 16:18 29.15875 48.22613 5967 ft 220 kts 330°
2026-04-27 16:19 29.17217 48.21776 5441 ft 219 kts 330°
2026-04-27 16:19 29.18540 48.20946 5032 ft 216 kts 329°
2026-04-27 16:20 29.22082 48.18698 4092 ft 217 kts 330°
2026-04-27 16:20 29.23401 48.17856 4026 ft 218 kts 329°
2026-04-27 16:20 29.26068 48.16151 3977 ft 217 kts 330°
2026-04-27 16:21 29.27392 48.15336 3540 ft 214 kts 330°
2026-04-27 16:21 29.31355 48.12835 3023 ft 220 kts 329°
2026-04-27 16:22 29.32695 48.11977 3023 ft 220 kts 329°
2026-04-27 16:22 29.35365 48.10269 3015 ft 219 kts 328°
2026-04-27 16:22 29.36706 48.09414 3023 ft 220 kts 328°
2026-04-27 16:23 29.38041 48.08563 3025 ft 220 kts 329°
2026-04-27 16:23 29.40732 48.06856 3022 ft 220 kts 327°
2026-04-27 16:23 29.41914 48.05766 3008 ft 217 kts 307°
2026-04-27 16:24 29.42563 48.04270 3000 ft 211 kts 276°
2026-04-27 16:24 29.41782 48.01248 3042 ft 200 kts 242°
2026-04-27 16:25 29.40568 47.98363 3016 ft 201 kts 242°
2026-04-27 16:25 29.39383 47.95483 2927 ft 197 kts 243°
2026-04-27 16:26 29.38149 47.92669 2516 ft 198 kts 225°
2026-04-27 16:26 29.35683 47.91503 2516 ft 196 kts 193°
2026-04-27 16:27 29.33026 47.90774 2511 ft 197 kts 189°
2026-04-27 16:27 29.29085 47.91127 1855 ft 185 kts 166°
2026-04-27 16:28 29.26727 47.92086 1161 ft 172 kts 151°
2026-04-27 16:28 29.24647 47.93287 750 ft 161 kts 153°
2026-04-27 16:29 29.21902 47.94678 195 ft 18 kts 288°